| time (UTC) | temp F | wind direction | speed MPH | gust MPH | rain 1hr in | rain 24hr in | rain mn in | humidity % | barometer mb |
| 20260505022523 | 65 | 0 | 0.0 | 1.0 | 0.00 | 0.00 | 0.00 | 73 | 1011.6 |
| 20260505022029 | 65 | 165 | 0.0 | 1.0 | 0.00 | 0.00 | 0.00 | 73 | 1011.6 |
| 20260505021538 | 65 | 156 | 0.0 | 1.0 | 0.00 | 0.00 | 0.00 | 73 | 1011.3 |
| 20260505021025 | 65 | 155 | 0.0 | 1.0 | 0.00 | 0.00 | 0.00 | 73 | 1011.4 |
| 20260505020525 | 65 | 173 | 0.0 | 1.0 | 0.00 | 0.00 | 0.00 | 72 | 1011.6 |
| 20260505020040 | 66 | 158 | 0.0 | 2.0 | 0.00 | 0.00 | 0.00 | 71 | 1011.5 |
| 20260505015524 | 66 | 153 | 0.0 | 2.0 | 0.00 | 0.00 | 0.00 | 70 | 1011.2 |
| 20260505015024 | 66 | 167 | 0.0 | 1.0 | 0.00 | 0.00 | 0.00 | 70 | 1011.2 |
| 20260505014542 | 67 | 183 | 0.0 | 1.0 | 0.00 | 0.00 | 0.00 | 68 | 1011.3 |
| 20260505014023 | 67 | 192 | 0.0 | 1.0 | 0.00 | 0.00 | 0.00 | 67 | 1011.5 |
| 20260505013523 | 67 | 190 | 0.0 | 1.0 | 0.00 | 0.00 | 0.00 | 66 | 1011.5 |
| 20260505013037 | 68 | 203 | 0.0 | 1.0 | 0.00 | 0.00 | 0.00 | 66 | 1011.5 |
| 20260505012523 | 68 | 0 | 0.0 | 4.0 | 0.00 | 0.00 | 0.00 | 64 | 1011.5 |
| 20260505012023 | 69 | 203 | 1.0 | 4.0 | 0.00 | 0.00 | 0.00 | 63 | 1011.5 |
| 20260505011544 | 69 | 212 | 2.0 | 4.0 | 0.00 | 0.00 | 0.00 | 62 | 1011.2 |
| 20260505011022 | 69 | 218 | 1.0 | 4.0 | 0.00 | 0.00 | 0.00 | 63 | 1011.4 |
| 20260505010523 | 69 | 217 | 0.0 | 3.0 | 0.00 | 0.00 | 0.00 | 62 | 1011.4 |
| 20260505010053 | 69 | 213 | 1.0 | 5.0 | 0.00 | 0.00 | 0.00 | 61 | 1011.4 |
| 20260505005523 | 70 | 0 | 1.0 | 5.0 | 0.00 | 0.00 | 0.00 | 61 | 1011.3 |
| 20260505005024 | 70 | 211 | 1.0 | 5.0 | 0.00 | 0.00 | 0.00 | 60 | 1011.3 |
| 20260505004538 | 71 | 223 | 1.0 | 7.0 | 0.00 | 0.00 | 0.00 | 59 | 1011.2 |
| 20260505004023 | 72 | 219 | 3.0 | 8.0 | 0.00 | 0.00 | 0.00 | 56 | 1011.3 |
| 20260505003524 | 72 | 230 | 4.0 | 10.0 | 0.00 | 0.00 | 0.00 | 54 | 1011.2 |
| 20260505003037 | 73 | 206 | 4.0 | 11.0 | 0.00 | 0.00 | 0.00 | 54 | 1011.1 |
| 20260505002524 | 74 | 207 | 7.0 | 12.0 | 0.00 | 0.00 | 0.00 | 51 | 1011.0 |
| 20260505002023 | 74 | 207 | 8.0 | 12.0 | 0.00 | 0.00 | 0.00 | 51 | 1011.2 |
| 20260505001539 | 74 | 223 | 8.0 | 11.0 | 0.00 | 0.00 | 0.00 | 51 | 1011.1 |
| 20260505001023 | 74 | 225 | 6.0 | 12.0 | 0.00 | 0.00 | 0.00 | 51 | 1011.3 |
| 20260505000523 | 75 | 225 | 7.0 | 12.0 | 0.00 | 0.00 | 0.00 | 51 | 1011.1 |
| 20260505000047 | 75 | 216 | 7.0 | 12.0 | 0.00 | 0.00 | 0.00 | 51 | 1011.1 |
| 20260504235524 | 75 | 214 | 7.0 | 15.0 | 0.00 | 0.00 | 0.00 | 50 | 1011.2 |
| 20260504235024 | 76 | 228 | 8.0 | 15.0 | 0.00 | 0.00 | 0.00 | 48 | 1011.3 |
| 20260504234541 | 76 | 225 | 8.0 | 15.0 | 0.00 | 0.00 | 0.00 | 48 | 1011.4 |
| 20260504234023 | 76 | 194 | 6.0 | 12.0 | 0.00 | 0.00 | 0.00 | 50 | 1011.4 |
| 20260504233524 | 77 | 224 | 8.0 | 15.0 | 0.00 | 0.00 | 0.00 | 49 | 1011.6 |
| 20260504233039 | 77 | 216 | 8.0 | 15.0 | 0.00 | 0.00 | 0.00 | 48 | 1011.6 |
| 20260504232524 | 77 | 204 | 7.0 | 12.0 | 0.00 | 0.00 | 0.00 | 50 | 1011.6 |
| 20260504232025 | 77 | 219 | 8.0 | 14.0 | 0.00 | 0.00 | 0.00 | 47 | 1011.7 |
| 20260504231538 | 77 | 200 | 10.0 | 14.0 | 0.00 | 0.00 | 0.00 | 47 | 1011.7 |
| 20260504231024 | 77 | 205 | 10.0 | 14.0 | 0.00 | 0.00 | 0.00 | 46 | 1011.8 |
| 20260504230523 | 77 | 249 | 9.0 | 14.0 | 0.00 | 0.00 | 0.00 | 46 | 1011.9 |
| 20260504230035 | 77 | 207 | 9.0 | 14.0 | 0.00 | 0.00 | 0.00 | 47 | 1012.0 |
| 20260504225528 | 78 | 223 | 8.0 | 18.0 | 0.00 | 0.00 | 0.00 | 46 | 1011.9 |
| 20260504225023 | 78 | 200 | 8.0 | 18.0 | 0.00 | 0.00 | 0.00 | 47 | 1012.0 |
| 20260504224538 | 78 | 195 | 8.0 | 15.0 | 0.00 | 0.00 | 0.00 | 47 | 1011.8 |
| 20260504224023 | 78 | 212 | 8.0 | 15.0 | 0.00 | 0.00 | 0.00 | 48 | 1012.0 |
| 20260504223523 | 78 | 216 | 9.0 | 15.0 | 0.00 | 0.00 | 0.00 | 48 | 1012.0 |
| 20260504223037 | 78 | 214 | 9.0 | 14.0 | 0.00 | 0.00 | 0.00 | 47 | 1012.1 |
| 20260504222522 | 78 | 179 | 10.0 | 15.0 | 0.00 | 0.00 | 0.00 | 48 | 1012.1 |
| 20260504222023 | 78 | 199 | 9.0 | 15.0 | 0.00 | 0.00 | 0.00 | 48 | 1012.2 |
| 20260504221542 | 78 | 215 | 8.0 | 13.0 | 0.00 | 0.00 | 0.00 | 45 | 1012.2 |
| 20260504221023 | 78 | 196 | 8.0 | 16.0 | 0.00 | 0.00 | 0.00 | 47 | 1012.2 |
| 20260504220523 | 79 | 210 | 12.0 | 16.0 | 0.00 | 0.00 | 0.00 | 45 | 1012.3 |
| 20260504220048 | 79 | 202 | 8.0 | 20.0 | 0.00 | 0.00 | 0.00 | 46 | 1012.2 |
| 20260504215523 | 79 | 217 | 11.0 | 20.0 | 0.00 | 0.00 | 0.00 | 43 | 1012.4 |
| 20260504215026 | 79 | 185 | 9.0 | 17.0 | 0.00 | 0.00 | 0.00 | 47 | 1012.5 |
| 20260504214538 | 79 | 223 | 10.0 | 17.0 | 0.00 | 0.00 | 0.00 | 46 | 1012.4 |
| 20260504214023 | 79 | 211 | 12.0 | 15.0 | 0.00 | 0.00 | 0.00 | 44 | 1012.6 |
| 20260504213524 | 79 | 217 | 10.0 | 31.0 | 0.00 | 0.00 | 0.00 | 44 | 1012.4 |
| 20260504213050 | 80 | 218 | 9.0 | 31.0 | 0.00 | 0.00 | 0.00 | 44 | 1012.7 |
| 20260504212524 | 79 | 134 | 8.0 | 18.0 | 0.00 | 0.00 | 0.00 | 46 | 1012.5 |
| 20260504212024 | 79 | 141 | 10.0 | 18.0 | 0.00 | 0.00 | 0.00 | 45 | 1012.7 |
| 20260504211541 | 79 | 205 | 10.0 | 20.0 | 0.00 | 0.00 | 0.00 | 45 | 1012.7 |
| 20260504211023 | 79 | 208 | 10.0 | 20.0 | 0.00 | 0.00 | 0.00 | 47 | 1012.8 |
| 20260504210529 | 79 | 210 | 12.0 | 20.0 | 0.00 | 0.00 | 0.00 | 45 | 1012.8 |
| 20260504210041 | 79 | 225 | 10.0 | 17.0 | 0.00 | 0.00 | 0.00 | 46 | 1012.8 |
| 20260504205526 | 79 | 191 | 10.0 | 17.0 | 0.00 | 0.00 | 0.00 | 48 | 1012.8 |
| 20260504205022 | 78 | 195 | 12.0 | 17.0 | 0.00 | 0.00 | 0.00 | 45 | 1013.0 |
| 20260504204542 | 79 | 183 | 11.0 | 16.0 | 0.00 | 0.00 | 0.00 | 44 | 1013.0 |
| 20260504204026 | 79 | 193 | 9.0 | 16.0 | 0.00 | 0.00 | 0.00 | 44 | 1013.0 |
| 20260504203526 | 79 | 186 | 10.0 | 15.0 | 0.00 | 0.00 | 0.00 | 46 | 1013.1 |
| 20260504203040 | 79 | 265 | 8.0 | 17.0 | 0.00 | 0.00 | 0.00 | 44 | 1013.2 |
| 20260504202526 | 79 | 200 | 10.0 | 18.0 | 0.00 | 0.00 | 0.00 | 47 | 1013.3 |
| 20260504202026 | 79 | 218 | 12.0 | 18.0 | 0.00 | 0.00 | 0.00 | 46 | 1013.4 |
| 20260504201538 | 78 | 188 | 6.0 | 16.0 | 0.00 | 0.00 | 0.00 | 45 | 1013.4 |
| 20260504201023 | 79 | 204 | 9.0 | 13.0 | 0.00 | 0.00 | 0.00 | 47 | 1013.7 |
| 20260504200526 | 79 | 241 | 7.0 | 15.0 | 0.00 | 0.00 | 0.00 | 47 | 1013.7 |
| 20260504200035 | 79 | 238 | 9.0 | 15.0 | 0.00 | 0.00 | 0.00 | 45 | 1013.8 |
| 20260504195523 | 79 | 195 | 10.0 | 16.0 | 0.00 | 0.00 | 0.00 | 45 | 1013.9 |
| 20260504195024 | 78 | 173 | 10.0 | 17.0 | 0.00 | 0.00 | 0.00 | 46 | 1014.1 |
| 20260504194535 | 78 | 221 | 8.0 | 17.0 | 0.00 | 0.00 | 0.00 | 45 | 1014.1 |
| 20260504194026 | 78 | 217 | 9.0 | 17.0 | 0.00 | 0.00 | 0.00 | 46 | 1014.1 |
| 20260504193523 | 77 | 192 | 8.0 | 16.0 | 0.00 | 0.00 | 0.00 | 47 | 1014.1 |
| 20260504193053 | 78 | 186 | 9.0 | 16.0 | 0.00 | 0.00 | 0.00 | 47 | 1014.3 |
| 20260504192523 | 79 | 235 | 9.0 | 16.0 | 0.00 | 0.00 | 0.00 | 46 | 1014.4 |
| 20260504192023 | 78 | 205 | 10.0 | 16.0 | 0.00 | 0.00 | 0.00 | 46 | 1014.5 |
| 20260504191541 | 78 | 206 | 5.0 | 15.0 | 0.00 | 0.00 | 0.00 | 44 | 1014.5 |
| 20260504191023 | 77 | 210 | 8.0 | 17.0 | 0.00 | 0.00 | 0.00 | 49 | 1014.5 |
| 20260504190526 | 78 | 229 | 11.0 | 17.0 | 0.00 | 0.00 | 0.00 | 46 | 1014.5 |
| 20260504190042 | 79 | 190 | 9.0 | 17.0 | 0.00 | 0.00 | 0.00 | 45 | 1014.5 |
| 20260504185523 | 78 | 222 | 6.0 | 15.0 | 0.00 | 0.00 | 0.00 | 46 | 1014.7 |
| 20260504185026 | 78 | 228 | 9.0 | 15.0 | 0.00 | 0.00 | 0.00 | 46 | 1014.7 |
| 20260504184542 | 78 | 224 | 9.0 | 14.0 | 0.00 | 0.00 | 0.00 | 47 | 1014.5 |
| 20260504184024 | 78 | 232 | 6.0 | 14.0 | 0.00 | 0.00 | 0.00 | 48 | 1014.7 |
| 20260504183524 | 78 | 203 | 10.0 | 14.0 | 0.00 | 0.00 | 0.00 | 45 | 1014.7 |
| 20260504183049 | 78 | 230 | 10.0 | 15.0 | 0.00 | 0.00 | 0.00 | 46 | 1014.8 |
| 20260504182523 | 78 | 250 | 8.0 | 15.0 | 0.00 | 0.00 | 0.00 | 47 | 1014.8 |
| 20260504182024 | 78 | 199 | 9.0 | 15.0 | 0.00 | 0.00 | 0.00 | 45 | 1014.9 |
| 20260504181539 | 78 | 250 | 8.0 | 15.0 | 0.00 | 0.00 | 0.00 | 47 | 1014.8 |
| 20260504181023 | 79 | 221 | 9.0 | 13.0 | 0.00 | 0.00 | 0.00 | 47 | 1015.0 |
| 20260504180526 | 78 | 236 | 6.0 | 14.0 | 0.00 | 0.00 | 0.00 | 46 | 1015.0 |
| 20260504180058 | 78 | 231 | 9.0 | 14.0 | 0.00 | 0.00 | 0.00 | 43 | 1015.0 |
| 20260504175524 | 78 | 230 | 8.0 | 18.0 | 0.00 | 0.00 | 0.00 | 44 | 1015.0 |
| 20260504175027 | 78 | 235 | 8.0 | 18.0 | 0.00 | 0.00 | 0.00 | 44 | 1015.2 |
| 20260504174541 | 78 | 238 | 9.0 | 17.0 | 0.00 | 0.00 | 0.00 | 44 | 1015.2 |
| 20260504174027 | 78 | 208 | 11.0 | 17.0 | 0.00 | 0.00 | 0.00 | 45 | 1015.3 |
| 20260504173526 | 76 | 229 | 7.0 | 14.0 | 0.00 | 0.00 | 0.00 | 52 | 1015.2 |
| 20260504173039 | 76 | 223 | 10.0 | 16.0 | 0.00 | 0.00 | 0.00 | 47 | 1015.3 |
| 20260504172523 | 77 | 256 | 10.0 | 17.0 | 0.00 | 0.00 | 0.00 | 47 | 1015.4 |
| 20260504172025 | 78 | 225 | 11.0 | 17.0 | 0.00 | 0.00 | 0.00 | 48 | 1015.3 |
| 20260504171541 | 77 | 210 | 10.0 | 19.0 | 0.00 | 0.00 | 0.00 | 49 | 1015.4 |
| 20260504171024 | 77 | 240 | 8.0 | 19.0 | 0.00 | 0.00 | 0.00 | 50 | 1015.4 |
| 20260504170526 | 77 | 238 | 10.0 | 19.0 | 0.00 | 0.00 | 0.00 | 49 | 1015.5 |
| 20260504151023 | 72 | 259 | 8.0 | 12.0 | 0.00 | 0.00 | 0.00 | 57 | 1016.5 |
| 20260504150523 | 72 | 219 | 8.0 | 12.0 | 0.00 | 0.00 | 0.00 | 58 | 1016.5 |
| 20260504141023 | 69 | 237 | 6.0 | 11.0 | 0.00 | 0.00 | 0.00 | 66 | 1016.5 |
| 20260504140523 | 69 | 244 | 6.0 | 11.0 | 0.00 | 0.00 | 0.00 | 66 | 1016.6 |
| 20260504130524 | 65 | 199 | 5.0 | 9.0 | 0.00 | 0.00 | 0.00 | 72 | 1016.3 |
| 20260504110523 | 56 | 199 | 2.0 | 4.0 | 0.00 | 0.00 | 0.00 | 87 | 1015.5 |
| 20260504100523 | 56 | 167 | 2.0 | 4.0 | 0.00 | 0.00 | 0.00 | 87 | 1015.4 |
| 20260504081538 | 57 | 165 | 1.0 | 3.0 | 0.00 | 0.00 | 0.00 | 86 | 1016.0 |
| 20260504081025 | 58 | 173 | 0.0 | 2.0 | 0.00 | 0.00 | 0.00 | 86 | 1015.9 |
| 20260504080523 | 58 | 162 | 1.0 | 2.0 | 0.00 | 0.00 | 0.00 | 86 | 1015.9 |
| 20260504050524 | 58 | 0 | 0.0 | 0.0 | 0.00 | 0.00 | 0.00 | 85 | 1017.2 |
| 20260504045524 | 59 | 0 | 0.0 | 0.0 | 0.00 | 0.00 | 0.00 | 84 | 1017.2 |
| 20260504045026 | 59 | 0 | 0.0 | 0.0 | 0.00 | 0.00 | 0.00 | 84 | 1017.2 |
| 20260504044538 | 59 | 0 | 0.0 | 0.0 | 0.00 | 0.00 | 0.00 | 83 | 1017.2 |
| 20260504044023 | 59 | 0 | 0.0 | 0.0 | 0.00 | 0.00 | 0.00 | 83 | 1017.3 |
| 20260504043524 | 60 | 0 | 0.0 | 0.0 | 0.00 | 0.00 | 0.00 | 82 | 1017.3 |
| 20260504043051 | 60 | 0 | 0.0 | 0.0 | 0.00 | 0.00 | 0.00 | 79 | 1017.3 |
| 20260504042524 | 60 | 0 | 0.0 | 1.0 | 0.00 | 0.00 | 0.00 | 78 | 1017.3 |
| 20260504042028 | 60 | 0 | 0.0 | 1.0 | 0.00 | 0.00 | 0.00 | 79 | 1017.3 |
| 20260504041536 | 59 | 0 | 0.0 | 0.0 | 0.00 | 0.00 | 0.00 | 81 | 1017.3 |
| 20260504041023 | 59 | 0 | 0.0 | 0.0 | 0.00 | 0.00 | 0.00 | 81 | 1017.3 |
| 20260504040524 | 60 | 0 | 0.0 | 0.0 | 0.00 | 0.00 | 0.00 | 80 | 1017.4 |
| 20260504040039 | 61 | 0 | 0.0 | 0.0 | 0.00 | 0.00 | 0.00 | 78 | 1017.3 |
| 20260504035524 | 61 | 0 | 0.0 | 1.0 | 0.00 | 0.00 | 0.00 | 76 | 1017.2 |
| 20260504035027 | 61 | 0 | 0.0 | 1.0 | 0.00 | 0.00 | 0.00 | 75 | 1017.3 |
| 20260504034539 | 62 | 0 | 0.0 | 0.0 | 0.00 | 0.00 | 0.00 | 75 | 1017.3 |
| 20260504034023 | 62 | 0 | 0.0 | 0.0 | 0.00 | 0.00 | 0.00 | 75 | 1017.3 |
| 20260504033526 | 62 | 0 | 0.0 | 1.0 | 0.00 | 0.00 | 0.00 | 74 | 1017.4 |
| 20260504033041 | 62 | 0 | 0.0 | 1.0 | 0.00 | 0.00 | 0.00 | 73 | 1017.4 |
| 20260504032523 | 62 | 0 | 0.0 | 0.0 | 0.00 | 0.00 | 0.00 | 72 | 1017.4 |
| 20260504032024 | 62 | 0 | 0.0 | 0.0 | 0.00 | 0.00 | 0.00 | 72 | 1017.4 |
| 20260504031535 | 63 | 0 | 0.0 | 0.0 | 0.00 | 0.00 | 0.00 | 72 | 1017.4 |
| 20260504031026 | 63 | 0 | 0.0 | 1.0 | 0.00 | 0.00 | 0.00 | 71 | 1017.4 |
| 20260504030527 | 63 | 0 | 0.0 | 1.0 | 0.00 | 0.00 | 0.00 | 71 | 1017.4 |
| 20260504030047 | 63 | 0 | 0.0 | 1.0 | 0.00 | 0.00 | 0.00 | 71 | 1017.4 |
| 20260504025530 | 63 | 0 | 0.0 | 1.0 | 0.00 | 0.00 | 0.00 | 71 | 1017.3 |
| 20260504025026 | 63 | 0 | 0.0 | 1.0 | 0.00 | 0.00 | 0.00 | 72 | 1017.4 |
| 20260504024539 | 63 | 0 | 0.0 | 0.0 | 0.00 | 0.00 | 0.00 | 72 | 1017.4 |
| 20260504024026 | 63 | 0 | 0.0 | 0.0 | 0.00 | 0.00 | 0.00 | 72 | 1017.3 |
| 20260504023524 | 63 | 0 | 0.0 | 0.0 | 0.00 | 0.00 | 0.00 | 71 | 1017.2 |
| 20260504023040 | 63 | 0 | 0.0 | 1.0 | 0.00 | 0.00 | 0.00 | 71 | 1017.2 |